Weather History for Olathe, KS

Change the Weather History Date:

Sunday, May 6, 2012

  Actual Average Record
Temperature  
Mean Temperature 72 °F 62 °F  
Max Temperature 82 °F 71 °F 87 °F (1965)
Min Temperature 62 °F 52 °F 36 °F (1989)
Degree Days  
Heating Degree Days 0 5  
Month to date heating degree days 0 32  
Since 1 July heating degree days 3789 4863  
Cooling Degree Days 7 1  
Month to date cooling degree days 56 6  
Year to date cooling degree days 138 24  
Growing Degree Days 22 (Base 50)    
Moisture  
Dew Point 66 °F    
Average Humidity 81    
Maximum Humidity 93    
Minimum Humidity 69    
Precipitation  
Precipitation 2.19 in 0.19 in 3.50 in (2007)
Month to date precipitation 2.56 1.15  
Year to date precipitation 8.88 10.46  
Sea Level Pressure  
Sea Level Pressure 29.84 in    
Wind  
Wind Speed 8 mph (ESE)    
Max Wind Speed 24 mph    
Max Gust Speed 37 mph    
Visibility 6 miles    
Events Fog , Rain , Thunderstorm    
T = Trace of Precipitation, MM = Missing Value Source: NWS Daily Summary

Daily Weather History Graph

Daily Weather History Graph

Search for Another Location

Airport:

Trip Planner

Search our weather history database for the weather conditions in past years. The results will help you decide how hot, cold, wet, or windy it might be!

Date:

Astronomy

May. 06, 2012 Rise Set
Actual Time 6:14 AM CDT 8:16 PM CDT
Civil Twilight 5:45 AM CDT 8:46 PM CDT
Nautical Twilight 5:10 AM CDT 9:21 PM CDT
Astronomical Twilight 4:31 AM CDT 10:00 PM CDT
Moon 9:22 PM CDT (5/6) 6:26 AM CDT (5/6)
Length of Visible Light 15h 00m
Length of Day
14h 01m
Full, 100% of the Moon is Illuminated
May 6
Full
May 12
Last Quarter
May 20
New
May 28
First Quarter
Jun 4
Full

Hourly Weather History & Observations

Time (CDT) Temp. Heat Index Dew Point Humidity Pressure Visibility Wind Dir Wind Speed Gust Speed Precip Events Conditions
12:53 AM 73.0 °F - 66.9 °F 81% 29.78 in 10.0 mi SSE 10.4 mph - N/A   Clear
1:53 AM 73.0 °F - 66.0 °F 79% 29.78 in 10.0 mi SSE 8.1 mph - N/A   Clear
3:53 AM 72.0 °F - 64.9 °F 78% 29.78 in 10.0 mi South 9.2 mph - N/A   Clear
4:53 AM 71.1 °F - 64.9 °F 81% 29.78 in 10.0 mi South 6.9 mph - N/A   Clear
5:53 AM 72.0 °F - 66.0 °F 81% 29.77 in 10.0 mi South 10.4 mph - N/A   Clear
6:53 AM 72.0 °F - 66.0 °F 81% 29.77 in 8.0 mi South 9.2 mph - N/A   Clear
7:53 AM 72.0 °F - 66.9 °F 84% 29.79 in 8.0 mi SE 8.1 mph - N/A   Clear
8:53 AM 75.0 °F - 66.9 °F 76% 29.81 in 8.0 mi SSW 5.8 mph 16.1 mph N/A   Mostly Cloudy
9:53 AM 75.0 °F - 68.0 °F 79% 29.81 in 8.0 mi SSW 5.8 mph - N/A   Overcast
10:02 AM 73.4 °F - 68.0 °F 83% 29.84 in 1.5 mi SSW 3.5 mph - 0.09 in Rain Rain
10:09 AM 73.4 °F - 69.8 °F 88% 29.83 in 5.0 mi West 3.5 mph - 0.10 in Rain Light Rain
10:20 AM 73.4 °F - 69.8 °F 88% 29.83 in 5.0 mi Calm Calm - 0.14 in Rain , Thunderstorm Light Thunderstorms and Rain
10:28 AM 71.6 °F - 69.8 °F 94% 29.84 in 5.0 mi ESE 5.8 mph - 0.14 in Rain , Thunderstorm Light Thunderstorms and Rain
10:53 AM 72.0 °F - 70.0 °F 93% 29.82 in 4.0 mi South 5.8 mph - 0.15 in Rain , Thunderstorm Light Thunderstorms and Rain
11:07 AM 71.6 °F - 69.8 °F 94% 29.86 in 1.5 mi South 3.5 mph - 0.09 in Rain , Thunderstorm Light Thunderstorms and Rain
11:09 AM 71.6 °F - 69.8 °F 94% 29.86 in 0.8 mi Calm Calm - 0.14 in Rain , Thunderstorm Thunderstorms and Rain
11:19 AM 71.6 °F - 69.8 °F 94% 29.86 in 2.0 mi ESE 5.8 mph - 0.15 in Rain , Thunderstorm Thunderstorms and Rain
11:27 AM 71.6 °F - 69.8 °F 94% 29.87 in 4.0 mi East 6.9 mph - 0.15 in Thunderstorm Overcast
11:44 AM 71.6 °F - 69.8 °F 94% 29.85 in 5.0 mi ENE 5.8 mph - 0.15 in Thunderstorm Mostly Cloudy
11:53 AM 71.1 °F - 69.1 °F 93% 29.85 in 4.0 mi ENE 10.4 mph - 0.15 in Thunderstorm Mostly Cloudy
12:02 PM 69.8 °F - 68.0 °F 94% 29.88 in 5.0 mi ESE 9.2 mph - N/A   Mostly Cloudy
12:21 PM 71.6 °F - 69.8 °F 94% 29.85 in 6.0 mi SE 5.8 mph - N/A Thunderstorm Scattered Clouds
12:38 PM 71.6 °F - 69.8 °F 94% 29.85 in 6.0 mi East 8.1 mph - N/A   Scattered Clouds
12:53 PM 71.1 °F - 68.0 °F 90% 29.82 in 6.0 mi ESE 9.2 mph - N/A   Mostly Cloudy
1:53 PM 75.0 °F - 66.9 °F 76% 29.82 in 10.0 mi SSE 4.6 mph - N/A   Scattered Clouds
2:53 PM 80.1 °F 83.2 °F 70.0 °F 71% 29.79 in 10.0 mi SE 13.8 mph 20.7 mph N/A   Clear
3:53 PM 81.0 °F 84.9 °F 71.1 °F 72% 29.79 in 9.0 mi SE 9.2 mph 18.4 mph N/A   Scattered Clouds
4:37 PM 80.6 °F 84.6 °F 71.6 °F 74% 29.80 in 9.0 mi ESE 5.8 mph - N/A Thunderstorm Partly Cloudy
4:53 PM 80.1 °F 83.8 °F 72.0 °F 76% 29.77 in 9.0 mi ESE 4.6 mph - N/A Thunderstorm Scattered Clouds
5:08 PM 80.6 °F 84.6 °F 71.6 °F 74% 29.82 in 9.0 mi NE 6.9 mph - N/A Thunderstorm Mostly Cloudy
5:41 PM 75.2 °F - 69.8 °F 83% 29.80 in 8.0 mi ESE 10.4 mph - N/A Thunderstorm Thunderstorm
5:53 PM 75.0 °F - 64.9 °F 71% 29.77 in 8.0 mi East 11.5 mph - 0.00 in Rain , Thunderstorm Light Thunderstorms and Rain
6:53 PM 66.9 °F - 61.0 °F 81% 29.79 in 3.0 mi Variable 6.9 mph 19.6 mph 0.16 in Rain , Thunderstorm Light Thunderstorms and Rain
7:15 PM 64.4 °F - 62.6 °F 94% 29.86 in 3.0 mi East 15.0 mph 28.8 mph 0.19 in Rain , Thunderstorm Thunderstorms and Rain
7:34 PM 64.4 °F - 60.8 °F 88% 29.91 in 1.8 mi North 18.4 mph 21.9 mph 0.46 in Rain , Thunderstorm Heavy Thunderstorms and Rain
7:36 PM 64.4 °F - 62.6 °F 94% 29.91 in 1.0 mi North 21.9 mph - 0.60 in Rain , Thunderstorm Heavy Thunderstorms and Rain
7:42 PM 62.6 °F - 62.6 °F 100% 29.90 in 0.5 mi North 12.7 mph 24.2 mph 0.88 in Fog , Rain , Thunderstorm Heavy Thunderstorms and Rain
7:51 PM 62.6 °F - 62.6 °F 100% 29.91 in 0.8 mi Calm Calm - 1.20 in Rain , Thunderstorm Heavy Thunderstorms and Rain
7:53 PM 62.1 °F - 61.0 °F 96% 29.89 in 0.8 mi Calm Calm - 1.26 in Rain , Thunderstorm Heavy Thunderstorms and Rain
8:03 PM 62.6 °F - 60.8 °F 94% 29.86 in 3.0 mi East 11.5 mph - 0.28 in Rain , Thunderstorm Heavy Thunderstorms and Rain
8:13 PM 62.6 °F - 60.8 °F 94% 29.86 in 3.0 mi East 9.2 mph - 0.33 in Rain , Thunderstorm Thunderstorms and Rain
8:53 PM 64.0 °F - 60.1 °F 87% 29.81 in 10.0 mi NNW 5.8 mph - 0.39 in Rain Light Rain
9:02 PM 64.4 °F - 60.8 °F 88% 29.85 in 10.0 mi NNW 13.8 mph 19.6 mph 0.00 in Thunderstorm Scattered Clouds
9:17 PM 62.6 °F - 60.8 °F 94% 29.86 in 10.0 mi NNE 10.4 mph - 0.00 in   Mostly Cloudy
9:24 PM 64.4 °F - 60.8 °F 88% 29.87 in 10.0 mi North 6.9 mph - 0.00 in Thunderstorm Scattered Clouds
9:39 PM 64.4 °F - 60.8 °F 88% 29.87 in 10.0 mi North 6.9 mph - 0.00 in   Scattered Clouds
9:48 PM 64.4 °F - 60.8 °F 88% 29.87 in 10.0 mi NNE 4.6 mph - 0.00 in Thunderstorm Partly Cloudy
9:53 PM 64.0 °F - 61.0 °F 90% 29.85 in 10.0 mi North 4.6 mph - 0.00 in Thunderstorm Partly Cloudy
10:03 PM 64.4 °F - 60.8 °F 88% 29.89 in 10.0 mi Calm Calm - N/A   Scattered Clouds
10:43 PM 64.4 °F - 62.6 °F 94% 29.88 in 10.0 mi NNW 4.6 mph - N/A Thunderstorm Mostly Cloudy
10:53 PM 64.0 °F - 62.1 °F 93% 29.89 in 10.0 mi WSW 5.8 mph - 0.00 in Rain , Thunderstorm Light Rain
11:13 PM 64.4 °F - 62.6 °F 94% 29.92 in 5.0 mi Calm Calm - 0.01 in Rain , Thunderstorm Light Rain
11:38 PM 64.4 °F - 62.6 °F 94% 29.89 in 5.0 mi East 10.4 mph - 0.04 in Rain , Thunderstorm Light Rain
11:53 PM 64.0 °F - 62.1 °F 93% 29.85 in 5.0 mi NE 12.7 mph - 0.05 in Rain , Thunderstorm Light Rain